Tracking 19709 objects as of 18-Jun-2019
HD Live streaming from Space Station
objects crossing your sky now

DELTA 1 DEB

Track DELTA 1 DEB now!
10-day predictions


NORAD ID: 5971
Int'l Code: 1967-006E
Perigee: 1,288.2 km
Apogee: 1,462.5 km
Inclination: 102.0 °
Period: 113.1 minutes
Semi major axis: 7746 km
RCS: 0.0243 m2 (small)
Launch date: January 26, 1967
Source: United States (US)
Launch site: AIR FORCE WESTERN TEST RANGE (AFWTR)

Note: This is SATELLITE DEBRIS
aabbcc
Your satellite tracking list
Your tracking list is empty




NASA's NSSDC Master Catalog

Two Line Element Set (TLE):
1  5971U 67006E   19168.62934240 -.00000054 +00000-0 -20632-4 0  9994
2  5971 102.0014 313.4005 0112488 352.7678 071.3603 12.73384529435679
Source of the keplerian elements: AFSPC